Location: Dappach
(48.9767°N, 9.6998°E)
Time: 02:49:20
(UTC+00:00)

SL-27 R/B - Pass Details

Date: 23 May 2024
Orbit: 328 x 352 km, 74.7° (Epoch: 19 June)

Event Time Altitude Azimuth Distance (km) Brightness Sun altitude
Rises 13:23:32 0° 300° (WNW) 2,128 6.0 52.1°
Enters shadow 13:59:19 -62° 164° (SSE) 11,698 9.2 47.2°
Exits shadow 14:35:15 -43° 7° (N) 9,184 8.6 41.7°
Maximum altitude 01:17:20 17° 102° (ESE) 956 4.2 -15.5°
